Wind_Speed
22 15 11 11 11 13 16 21 24 26 24 23 23 23 24 21 19 19 22 22 22 20 20 22 23 22 20 19 18 17 17 19 20 21 22 22 21 21 22 21 21 22 22
18 14 11 11 12 15 17 19 22 24 25 24 25 26 26 24 22 22 24 23 23 21 22 23 23 21 19 18 18 19 20 21 21 21 21 21 21 21 21 21 22 23 23
15 12 11 11 13 17 19 20 21 23 23 25 27 27 27 26 24 25 25 24 23 23 23 23 21 19 16 19 20 20 21 23 24 24 23 23 22 22 23 22 23 22 22
11 9 7 8 12 18 20 21 22 22 23 25 27 28 28 28 27 28 27 26 25 24 22 21 19 17 19 22 21 20 22 23 24 24 24 23 23 22 23 24 22 22 22
11 9 9 9 13 18 21 21 22 23 24 26 28 29 29 29 30 30 28 28 27 25 23 21 20 20 22 23 19 19 22 23 23 23 23 24 21 21 19 18 19 18 21
13 12 11 11 13 18 22 23 24 24 24 25 28 30 32 32 31 31 31 28 26 23 21 22 21 22 24 23 18 20 21 21 22 22 22 21 21 19 18 18 18 20 20
14 13 12 13 14 17 21 23 24 24 25 25 27 31 33 34 34 31 29 27 24 22 23 24 24 24 23 21 19 21 21 21 20 20 20 21 19 20 19 19 20 18 18
13 12 11 11 13 16 19 23 23 24 25 26 27 31 35 34 33 29 27 23 22 24 25 25 25 25 22 22 21 20 19 19 18 18 17 17 15 16 17 17 19 19 19
14 13 12 12 13 15 17 19 21 22 22 23 24 24 27 23 22 23 24 21 21 24 25 26 26 25 22 23 22 20 18 17 16 16 16 15 17 16 16 17 16 16 17
17 14 13 13 15 17 16 16 20 21 22 24 24 25 21 27 20 18 19 20 23 25 26 27 26 25 24 22 21 18 17 14 14 14 13 15 16 17 16 16 16 17 17
21 17 13 13 13 17 18 18 18 20 23 24 25 27 27 25 30 26 22 21 22 22 27 28 27 25 24 22 20 17 15 15 13 13 13 17 17 17 17 16 17 17 17
23 17 13 13 11 16 20 18 17 19 22 25 25 23 29 26 21 24 31 27 27 25 29 28 28 27 26 24 20 16 14 13 13 13 14 15 18 18 18 17 17 17 16
20 17 14 13 11 16 19 19 19 18 18 22 24 29 29 30 21 19 26 26 28 28 28 28 29 29 28 25 22 19 14 13 12 15 17 18 18 18 18 17 17 16 16
23 18 16 14 13 17 18 20 20 20 21 19 22 28 37 29 22 26 28 31 30 31 31 32 32 30 26 21 20 17 14 13 14 16 18 21 18 18 17 16 17 17 16
26 21 16 14 14 17 19 20 22 22 21 23 23 30 28 30 29 31 31 35 34 31 34 36 33 29 25 21 20 14 11 12 14 17 17 20 19 17 17 16 15 15 14
29 24 18 15 16 16 18 20 21 24 22 24 26 27 29 36 37 33 32 38 34 31 33 35 33 29 25 23 20 15 13 11 16 19 16 18 19 17 16 16 14 14 14
32 24 19 17 16 14 15 16 18 20 23 23 23 22 27 34 42 36 37 35 35 31 32 35 33 28 25 25 21 17 14 11 17 17 16 16 18 17 16 16 16 15 14
30 25 19 18 16 14 14 14 15 18 20 21 19 21 28 33 42 38 38 37 36 32 33 35 32 28 27 26 22 18 16 12 14 15 15 15 15 15 17 16 15 14 14
29 25 21 19 17 14 14 15 15 17 17 21 25 26 42 44 37 34 39 40 37 32 37 38 33 30 30 28 23 21 18 15 13 12 14 15 15 15 13 16 14 13 13
28 25 22 20 18 16 16 17 16 17 16 17 18 17 24 35 42 39 39 38 36 37 40 38 34 30 29 28 24 21 19 17 14 12 13 15 15 15 15 14 15 15 13
29 28 26 23 20 18 19 20 19 18 16 17 18 17 14 28 40 40 38 32 33 36 39 41 35 32 31 28 24 23 20 18 16 14 13 15 16 16 16 17 16 15 14
33 31 29 25 21 20 19 21 21 19 15 18 15 12 17 21 33 38 37 36 36 37 40 42 38 36 33 31 25 21 14 15 19 17 15 14 15 15 16 17 17 17 17
36 34 33 26 22 19 19 20 18 16 16 17 14 15 10 15 32 32 32 34 35 38 40 44 42 42 37 34 31 17 11 10 19 21 19 18 16 14 15 16 18 19 19
37 36 33 27 22 19 21 22 19 19 19 18 18 18 16 16 19 32 24 25 30 33 36 40 41 41 40 36 33 32 23 16 13 12 22 21 20 18 17 18 20 21 21
35 36 35 28 23 19 20 22 19 17 17 17 16 18 18 22 22 26 29 32 29 31 34 38 40 43 41 42 39 34 26 21 17 16 17 26 25 23 24 24 22 24 26
32 36 34 29 24 19 18 21 19 17 18 15 17 18 19 19 22 26 30 35 35 33 33 33 35 39 42 42 38 37 35 30 24 22 18 22 28 27 25 25 28 24 28
Wind_Direction
191 197 203 215 210 215 209 204 204 206 207 204 201 194 189 188 188 185 179 175 174 174 172 165 160 157 154 151 151 147 143 142 142 139 138 136 135 133 130 130 127 123 125
184 187 200 211 209 216 216 205 200 203 207 204 199 195 193 193 190 185 179 176 175 171 171 163 161 159 164 159 157 150 147 146 141 140 138 135 135 134 133 132 128 125 124
169 177 193 207 210 211 208 203 199 201 204 201 197 197 194 193 192 185 183 178 176 171 168 164 165 169 171 164 155 150 148 146 143 141 137 133 132 133 131 128 127 127 125
172 173 179 198 215 213 211 205 200 199 199 199 196 197 196 193 194 189 184 182 180 176 176 175 177 177 166 160 155 152 155 153 150 144 133 131 132 132 132 129 128 125 125
172 177 184 193 211 213 213 212 207 200 201 201 201 200 199 197 195 191 188 184 181 182 180 181 182 181 172 164 158 160 160 156 153 149 140 138 136 138 140 140 137 136 135
178 186 194 202 213 216 214 213 211 207 203 203 203 203 203 201 195 194 190 188 184 186 182 185 180 180 173 167 166 168 164 163 159 153 151 151 154 155 154 154 147 146 143
186 189 196 207 217 223 217 214 214 211 208 207 208 205 204 199 196 193 190 188 187 185 186 181 183 179 172 171 174 173 173 173 173 169 170 171 169 171 170 166 161 159 161
197 196 201 213 217 225 225 219 219 215 214 211 210 207 206 203 199 191 191 189 188 187 187 189 183 181 175 177 177 179 182 184 182 183 187 187 180 176 172 176 174 175 168
203 207 212 224 227 223 230 226 221 220 218 216 213 214 197 200 195 193 191 188 191 191 192 194 187 180 175 181 180 181 184 186 187 189 186 182 166 160 166 176 171 173 178
210 214 215 225 225 227 224 221 221 218 217 214 212 209 206 193 193 195 194 191 200 201 198 194 187 177 177 179 179 180 183 189 197 193 181 173 166 161 160 159 164 161 159
215 217 225 225 228 221 216 220 222 220 220 219 212 209 213 213 208 195 193 191 200 198 195 192 185 176 173 176 178 181 185 194 196 193 177 182 163 162 157 158 157 161 158
218 218 229 229 226 209 214 218 216 221 219 222 220 209 206 209 219 213 214 203 202 196 197 190 181 175 173 175 179 178 178 181 191 194 174 173 164 161 159 154 154 153 152
219 220 230 234 221 211 211 213 214 215 222 222 222 216 207 200 212 217 207 200 193 190 194 185 178 175 180 178 177 177 180 188 195 187 170 169 168 164 156 157 153 151 153
220 221 230 228 221 215 213 216 219 222 220 222 231 219 201 210 201 184 195 195 193 190 193 184 180 181 181 179 178 178 185 197 193 178 179 166 169 164 160 157 160 158 156
226 223 228 230 231 220 215 218 219 215 226 230 224 205 215 212 205 201 204 195 196 193 194 189 185 184 183 180 178 178 190 192 183 176 166 164 167 165 168 166 166 163 161
225 224 226 233 233 225 218 219 219 213 225 233 225 220 226 219 214 208 197 193 194 193 200 197 189 189 186 182 179 176 178 178 182 177 164 169 172 171 173 168 171 167 166
224 223 222 231 228 223 214 208 211 216 223 227 226 223 220 216 209 201 199 204 196 190 202 197 192 192 187 182 181 176 173 175 182 178 171 172 178 177 179 177 177 175 175
224 223 224 228 226 217 209 206 211 225 223 220 224 225 220 215 204 201 207 201 195 194 200 199 193 192 190 187 181 181 174 179 182 184 183 180 180 187 185 186 184 185 182
226 222 227 225 229 215 209 204 209 223 223 223 228 232 216 205 203 209 206 200 196 195 198 197 193 197 191 188 187 185 183 183 183 184 194 196 193 189 191 197 195 192 192
223 220 224 225 226 213 212 210 214 225 220 213 217 219 217 215 201 200 196 198 199 196 196 197 198 196 195 190 191 191 190 192 194 194 203 205 207 209 209 203 205 207 204
221 218 219 222 220 211 210 209 208 222 207 212 214 225 226 226 212 207 215 209 200 198 199 200 197 195 192 192 191 192 194 198 201 205 211 211 212 214 217 216 216 218 218
220 216 218 221 222 214 213 204 205 217 215 209 214 230 223 222 206 211 212 205 198 200 201 201 199 195 196 195 195 181 181 204 212 207 214 211 213 214 219 223 225 227 229
217 216 217 218 221 215 205 204 210 209 206 199 194 209 222 219 209 195 209 189 195 204 203 202 203 202 196 197 202 188 170 202 205 213 213 215 211 217 222 229 233 236 239
216 214 213 215 218 212 203 206 210 204 198 197 195 198 203 180 194 198 201 198 202 204 207 206 209 209 211 201 200 208 206 207 185 207 218 217 215 215 230 239 243 246 249
212 211 208 211 216 213 201 207 206 209 209 211 202 202 203 194 188 186 194 199 206 205 210 211 210 211 213 212 207 203 209 211 217 212 213 217 224 217 228 238 246 254 255
207 209 205 208 213 211 201 202 207 213 210 209 200 200 208 211 214 210 203 206 204 205 208 212 215 216 217 221 220 215 214 216 220 219 218 222 226 229 228 237 251 256 259
Height
1485 1488 1490 1491 1492 1494 1497 1499 1502 1506 1508 1510 1512 1516 1518 1520 1522 1525 1528 1530 1532 1534 1535 1536 1538 1540 1541 1542 1544 1545 1547 1549 1550 1552 1553 1555 1557 1559 1560 1562 1563 1565 1566
1485 1488 1491 1492 1493 1494 1495 1498 1501 1505 1508 1510 1512 1514 1516 1518 1520 1523 1526 1530 1533 1535 1536 1537 1539 1541 1542 1544 1545 1546 1548 1549 1551 1553 1555 1557 1559 1560 1562 1564 1564 1566 1568
1486 1488 1490 1492 1492 1493 1495 1497 1500 1503 1506 1509 1510 1512 1514 1517 1520 1522 1525 1528 1533 1536 1538 1539 1540 1542 1543 1544 1546 1548 1549 1551 1553 1555 1557 1559 1561 1563 1564 1566 1568 1568 1570
1486 1487 1489 1491 1492 1493 1494 1496 1499 1502 1505 1508 1510 1512 1514 1516 1518 1520 1523 1526 1530 1535 1539 1540 1542 1542 1543 1546 1547 1549 1551 1553 1554 1557 1560 1562 1564 1566 1567 1568 1570 1571 1572
1484 1486 1487 1489 1491 1491 1492 1496 1498 1500 1503 1506 1509 1511 1513 1515 1517 1520 1523 1525 1529 1534 1537 1540 1541 1543 1545 1547 1549 1551 1553 1555 1557 1559 1561 1564 1566 1568 1569 1571 1572 1574 1574
1482 1484 1486 1487 1489 1491 1491 1494 1496 1499 1502 1504 1507 1510 1511 1513 1515 1519 1521 1525 1528 1532 1536 1538 1541 1542 1546 1549 1551 1553 1555 1557 1559 1561 1563 1565 1567 1569 1570 1572 1573 1575 1574
1481 1482 1484 1486 1487 1491 1491 1492 1495 1498 1500 1502 1505 1507 1510 1511 1513 1517 1521 1527 1530 1532 1535 1536 1538 1543 1546 1549 1552 1555 1557 1558 1560 1562 1564 1566 1568 1569 1570 1571 1573 1575 1576
1480 1482 1483 1484 1486 1489 1492 1491 1493 1497 1499 1501 1503 1505 1507 1509 1513 1515 1522 1527 1530 1531 1534 1537 1537 1542 1547 1550 1552 1556 1559 1560 1562 1563 1565 1567 1568 1569 1569 1570 1571 1573 1575
1479 1479 1480 1483 1484 1486 1490 1490 1492 1495 1498 1500 1503 1505 1503 1512 1512 1518 1522 1526 1531 1532 1534 1537 1538 1541 1546 1550 1553 1555 1559 1561 1562 1564 1566 1566 1569 1569 1570 1570 1571 1573 1575
1476 1477 1477 1480 1482 1483 1487 1488 1489 1492 1496 1498 1501 1503 1505 1509 1513 1521 1523 1525 1530 1532 1534 1537 1541 1541 1546 1550 1553 1556 1559 1561 1563 1564 1566 1566 1569 1569 1570 1570 1571 1573 1574
1472 1473 1474 1477 1479 1480 1484 1485 1487 1490 1492 1495 1498 1501 1504 1507 1511 1515 1521 1525 1529 1530 1534 1537 1541 1542 1545 1550 1554 1556 1559 1561 1563 1564 1566 1566 1569 1570 1571 1571 1572 1574 1575
1467 1470 1472 1474 1475 1477 1481 1482 1484 1488 1490 1492 1495 1498 1503 1506 1508 1509 1515 1521 1527 1526 1534 1537 1541 1543 1546 1549 1553 1557 1559 1561 1563 1564 1566 1566 1569 1571 1571 1573 1574 1575 1577
1465 1467 1469 1470 1472 1475 1477 1479 1481 1484 1487 1489 1491 1495 1500 1504 1505 1507 1511 1518 1522 1526 1534 1537 1541 1543 1545 1548 1552 1555 1558 1560 1563 1564 1565 1567 1570 1571 1572 1574 1574 1576 1578
1462 1464 1466 1467 1469 1473 1474 1475 1478 1481 1484 1486 1489 1491 1496 1500 1502 1504 1510 1516 1520 1524 1532 1535 1539 1542 1545 1549 1552 1555 1558 1560 1562 1564 1565 1568 1571 1572 1573 1575 1576 1577 1579
1459 1462 1462 1463 1466 1470 1471 1472 1474 1477 1480 1484 1486 1489 1493 1497 1500 1503 1507 1514 1518 1522 1530 1533 1537 1541 1545 1549 1552 1555 1558 1560 1562 1565 1566 1568 1571 1573 1574 1576 1577 1578 1580
1454 1458 1459 1460 1463 1466 1468 1469 1472 1474 1477 1480 1483 1485 1489 1493 1497 1500 1504 1511 1515 1519 1527 1532 1537 1541 1545 1549 1552 1555 1558 1560 1563 1565 1566 1569 1571 1573 1576 1576 1578 1580 1581
1450 1455 1455 1458 1460 1463 1465 1467 1469 1472 1474 1477 1479 1482 1484 1488 1492 1496 1503 1508 1511 1517 1524 1530 1536 1541 1545 1549 1551 1555 1558 1561 1563 1564 1566 1570 1571 1574 1576 1577 1578 1580 1582
1448 1451 1453 1455 1457 1460 1462 1464 1466 1468 1470 1473 1476 1478 1480 1483 1488 1494 1499 1504 1509 1514 1522 1528 1535 1540 1543 1548 1551 1554 1557 1561 1563 1565 1567 1570 1573 1575 1575 1577 1578 1580 1581
1444 1448 1450 1452 1454 1457 1460 1462 1464 1466 1468 1470 1472 1475 1475 1474 1484 1490 1495 1501 1506 1512 1519 1526 1533 1538 1542 1547 1551 1553 1557 1560 1563 1565 1567 1569 1571 1574 1576 1577 1579 1580 1581
1438 1443 1446 1449 1452 1454 1458 1460 1462 1463 1465 1468 1470 1473 1476 1475 1476 1485 1492 1498 1503 1508 1516 1523 1530 1536 1541 1545 1549 1553 1556 1560 1562 1564 1567 1568 1570 1572 1574 1576 1577 1579 1581
1432 1437 1440 1444 1448 1452 1455 1457 1459 1460 1463 1466 1468 1469 1472 1474 1475 1480 1487 1495 1501 1507 1513 1519 1526 1533 1538 1543 1547 1551 1556 1559 1561 1562 1565 1567 1568 1570 1572 1574 1575 1578 1579
1424 1430 1435 1439 1444 1448 1451 1454 1456 1458 1461 1463 1466 1467 1469 1469 1470 1476 1482 1490 1498 1504 1511 1516 1521 1528 1534 1539 1544 1549 1554 1558 1558 1559 1562 1564 1565 1567 1569 1571 1573 1575 1577
1417 1423 1428 1434 1439 1444 1448 1451 1454 1457 1460 1461 1464 1466 1466 1466 1468 1473 1479 1487 1495 1501 1506 1512 1516 1523 1527 1534 1540 1543 1548 1551 1554 1555 1558 1560 1562 1564 1566 1569 1571 1572 1574
1411 1418 1425 1430 1435 1441 1445 1448 1452 1454 1457 1459 1462 1465 1466 1469 1470 1472 1480 1487 1493 1499 1504 1510 1514 1520 1523 1530 1536 1538 1542 1544 1549 1553 1555 1557 1558 1560 1564 1565 1567 1568 1570
1408 1413 1421 1427 1432 1437 1442 1446 1449 1453 1456 1459 1461 1464 1467 1468 1472 1474 1479 1484 1490 1495 1501 1506 1510 1516 1522 1526 1530 1534 1538 1541 1544 1547 1549 1552 1554 1554 1559 1561 1563 1563 1564
1403 1409 1417 1423 1428 1434 1438 1443 1447 1451 1453 1457 1460 1463 1465 1468 1470 1473 1478 1483 1487 1492 1497 1503 1509 1514 1518 1522 1527 1531 1533 1536 1540 1543 1545 1547 1548 1549 1552 1555 1557 1557 1558